When you browse on this site, cookies collect data to enhance your experience and personalize the content and advertising you see.
Visit our Privacy Policy to learn more. By continuing to use the site, you agree to this use of cookies and data.

Hourly Weather Totonicapán

Today, 14 July, Tuesday

Time Temperature Precipitation Wind Pressure Humidity
00:00 +11°C° 0.4 mm 1 mps 554 mmHg 95%
01:00 +10°C° 0 mm 1 mps 554 mmHg 95%
02:00 +10°C° 0 mm 1 mps 553 mmHg 95%
03:00 +10°C° 0 mm 1 mps 553 mmHg 95%
04:00 +10°C° 0 mm 1 mps 553 mmHg 92%
05:00 +10°C° 0 mm 1 mps 553 mmHg 90%
06:00 +9°C° 0 mm 1 mps 553 mmHg 87%
07:00 +12°C° 0 mm 1 mps 554 mmHg 79%
08:00 +14°C° 0 mm 1 mps 556 mmHg 71%
09:00 +18°C° 0 mm 1 mps 557 mmHg 63%
10:00 +18°C° 0.1 mm 2 mps 557 mmHg 61%
11:00 +18°C° 0.1 mm 2 mps 558 mmHg 60%
12:00 +19°C° 0.1 mm 3 mps 558 mmHg 58%
13:00 +19°C° 0.6 mm 3 mps 558 mmHg 60%
14:00 +19°C° 0.6 mm 3 mps 557 mmHg 61%
15:00 +18°C° 0.6 mm 3 mps 557 mmHg 63%
16:00 +17°C° 0.2 mm 2 mps 556 mmHg 70%
17:00 +16°C° 0.2 mm 2 mps 556 mmHg 78%
18:00 +15°C° 0.2 mm 1 mps 555 mmHg 85%
19:00 +13°C° 0.1 mm 1 mps 555 mmHg 87%
20:00 +12°C° 0.1 mm 1 mps 554 mmHg 90%
21:00 +11°C° 0.1 mm 1 mps 554 mmHg 92%
22:00 +11°C° 0.1 mm 1 mps 554 mmHg 91%
23:00 +11°C° 0.1 mm 1 mps 554 mmHg 90%

Tomorrow, 15 July, Wednesday

Time Temperature Precipitation Wind Pressure Humidity
00:00 +11°C° 0.1 mm 1 mps 554 mmHg 90%
01:00 +11°C° 0 mm 1 mps 554 mmHg 89%
02:00 +10°C° 0 mm 1 mps 553 mmHg 88%
03:00 +10°C° 0 mm 1 mps 552 mmHg 87%
04:00 +10°C° 0 mm 1 mps 552 mmHg 87%
05:00 +10°C° 0 mm 1 mps 552 mmHg 87%
06:00 +10°C° 0 mm 1 mps 552 mmHg 87%
07:00 +12°C° 0 mm 1 mps 554 mmHg 77%
08:00 +15°C° 0 mm 1 mps 556 mmHg 67%
09:00 +19°C° 0 mm 1 mps 557 mmHg 57%
10:00 +19°C° 0.1 mm 2 mps 558 mmHg 54%
11:00 +19°C° 0.1 mm 3 mps 558 mmHg 50%
12:00 +20°C° 0.1 mm 3 mps 558 mmHg 47%
13:00 +20°C° 0.2 mm 3 mps 558 mmHg 49%
14:00 +19°C° 0.2 mm 3 mps 557 mmHg 52%
15:00 +19°C° 0.2 mm 3 mps 557 mmHg 54%
16:00 +17°C° 0.3 mm 2 mps 556 mmHg 64%
17:00 +16°C° 0.3 mm 2 mps 555 mmHg 73%
18:00 +14°C° 0.3 mm 1 mps 554 mmHg 83%
19:00 +13°C° 0.1 mm 1 mps 554 mmHg 86%
20:00 +11°C° 0.1 mm 1 mps 554 mmHg 88%
21:00 +9°C° 0.1 mm 2 mps 553 mmHg 91%
22:00 +10°C° 0 mm 1 mps 553 mmHg 91%
23:00 +10°C° 0 mm 1 mps 554 mmHg 91%

Day after tomorrow, 16 July, Thursday

Time Temperature Precipitation Wind Pressure Humidity
00:00 +10°C° 0 mm 1 mps 554 mmHg 90%
01:00 +9°C° 0 mm 1 mps 553 mmHg 89%
02:00 +9°C° 0 mm 1 mps 553 mmHg 87%
03:00 +9°C° 0 mm 1 mps 552 mmHg 85%
04:00 +9°C° 0 mm 1 mps 552 mmHg 80%
05:00 +9°C° 0 mm 1 mps 552 mmHg 76%
06:00 +9°C° 0 mm 1 mps 552 mmHg 71%
07:00 +10°C° 0 mm 2 mps 554 mmHg 60%
08:00 +14°C° 0 mm 2 mps 556 mmHg 49%
09:00 +17°C° 0 mm 2 mps 558 mmHg 38%
10:00 +18°C° 0 mm 3 mps 558 mmHg 36%
11:00 +19°C° 0 mm 3 mps 558 mmHg 34%
12:00 +20°C° 0 mm 4 mps 559 mmHg 32%
13:00 +19°C° 0.1 mm 4 mps 558 mmHg 34%
14:00 +19°C° 0.1 mm 4 mps 558 mmHg 37%
15:00 +19°C° 0.1 mm 4 mps 557 mmHg 39%
16:00 +17°C° 0.1 mm 3 mps 556 mmHg 52%
17:00 +14°C° 0.1 mm 3 mps 555 mmHg 65%
18:00 +14°C° 0.1 mm 2 mps 554 mmHg 78%
19:00 +12°C° 0 mm 2 mps 554 mmHg 80%
20:00 +10°C° 0 mm 2 mps 554 mmHg 82%
21:00 +10°C° 0 mm 1 mps 553 mmHg 84%
22:00 +8°C° 0 mm 2 mps 553 mmHg 83%
23:00 +8°C° 0 mm 2 mps 553 mmHg 81%

17 July, Friday

Time Temperature Precipitation Wind Pressure Humidity
00:00 +8°C° 0 mm 2 mps 553 mmHg 80%
01:00 +8°C° 0 mm 2 mps 553 mmHg 78%
02:00 +8°C° 0 mm 2 mps 552 mmHg 75%
03:00 +7°C° 0 mm 2 mps 552 mmHg 73%
04:00 +7°C° 0 mm 2 mps 552 mmHg 70%
05:00 +7°C° 0 mm 2 mps 552 mmHg 68%
06:00 +7°C° 0 mm 2 mps 552 mmHg 66%
07:00 +10°C° 0 mm 2 mps 554 mmHg 58%
08:00 +14°C° 0 mm 2 mps 555 mmHg 51%
09:00 +17°C° 0 mm 2 mps 557 mmHg 43%
10:00 +18°C° 0 mm 2 mps 557 mmHg 43%
11:00 +19°C° 0 mm 3 mps 558 mmHg 42%
12:00 +20°C° 0 mm 3 mps 558 mmHg 42%
13:00 +19°C° 0.2 mm 3 mps 557 mmHg 45%
14:00 +19°C° 0.2 mm 3 mps 557 mmHg 47%
15:00 +19°C° 0.2 mm 4 mps 556 mmHg 50%
16:00 +17°C° 0.2 mm 3 mps 555 mmHg 58%
17:00 +16°C° 0.2 mm 2 mps 555 mmHg 66%
18:00 +14°C° 0.2 mm 1 mps 554 mmHg 74%
19:00 +13°C° 0.1 mm 1 mps 553 mmHg 78%
20:00 +11°C° 0.1 mm 1 mps 553 mmHg 83%
21:00 +10°C° 0.1 mm 1 mps 553 mmHg 87%
22:00 +10°C° 0 mm 1 mps 553 mmHg 87%
23:00 +9°C° 0 mm 1 mps 552 mmHg 88%

18 July, Saturday

Time Temperature Precipitation Wind Pressure Humidity
00:00 +9°C° 0 mm 1 mps 552 mmHg 88%
01:00 +9°C° 0 mm 1 mps 552 mmHg 88%
02:00 +9°C° 0 mm 1 mps 552 mmHg 88%
03:00 +9°C° 0 mm 1 mps 551 mmHg 88%
04:00 +9°C° 0 mm 1 mps 551 mmHg 87%
05:00 +9°C° 0 mm 1 mps 551 mmHg 87%
06:00 +8°C° 0 mm 1 mps 551 mmHg 86%
07:00 +11°C° 0 mm 1 mps 553 mmHg 74%
08:00 +14°C° 0 mm 1 mps 555 mmHg 62%
09:00 +18°C° 0 mm 1 mps 557 mmHg 50%
10:00 +18°C° 0 mm 2 mps 557 mmHg 47%
11:00 +19°C° 0 mm 2 mps 558 mmHg 45%
12:00 +20°C° 0 mm 2 mps 558 mmHg 43%
13:00 +20°C° 0.4 mm 3 mps 557 mmHg 49%
14:00 +19°C° 0.4 mm 3 mps 556 mmHg 55%
15:00 +18°C° 0.4 mm 3 mps 556 mmHg 62%
16:00 +17°C° 0.4 mm 2 mps 555 mmHg 69%
17:00 +16°C° 0.4 mm 2 mps 554 mmHg 77%
18:00 +14°C° 0.4 mm 1 mps 554 mmHg 85%
19:00 +13°C° 0.1 mm 1 mps 554 mmHg 88%
20:00 +12°C° 0.1 mm 1 mps 554 mmHg 92%
21:00 +11°C° 0.1 mm 1 mps 553 mmHg 96%
22:00 +10°C° 0 mm 1 mps 553 mmHg 96%
23:00 +10°C° 0 mm 1 mps 553 mmHg 95%

19 July, Sunday

Time Temperature Precipitation Wind Pressure Humidity
00:00 +9°C° 0 mm 1 mps 553 mmHg 95%
01:00 +9°C° 0 mm 1 mps 552 mmHg 93%
02:00 +9°C° 0 mm 1 mps 552 mmHg 91%
03:00 +9°C° 0 mm 1 mps 551 mmHg 90%
04:00 +9°C° 0 mm 1 mps 551 mmHg 87%
05:00 +9°C° 0 mm 1 mps 551 mmHg 85%
06:00 +9°C° 0 mm 1 mps 551 mmHg 82%
07:00 +12°C° 0 mm 1 mps 553 mmHg 72%
08:00 +15°C° 0 mm 1 mps 555 mmHg 61%
09:00 +19°C° 0 mm 1 mps 557 mmHg 50%
10:00 +20°C° 0 mm 1 mps 558 mmHg 50%
11:00 +20°C° 0 mm 2 mps 558 mmHg 49%
12:00 +21°C° 0 mm 3 mps 558 mmHg 49%
13:00 +19°C° 0.8 mm 3 mps 557 mmHg 59%
14:00 +18°C° 0.8 mm 2 mps 556 mmHg 68%
15:00 +17°C° 0.8 mm 2 mps 555 mmHg 78%
16:00 +16°C° 0.9 mm 2 mps 555 mmHg 83%
17:00 +15°C° 0.9 mm 1 mps 554 mmHg 89%
18:00 +14°C° 0.9 mm 1 mps 554 mmHg 94%
19:00 +13°C° 0.5 mm 1 mps 554 mmHg 94%
20:00 +12°C° 0.5 mm 1 mps 553 mmHg 95%
21:00 +11°C° 0.5 mm 1 mps 553 mmHg 95%
22:00 +10°C° 0 mm 1 mps 553 mmHg 95%
23:00 +10°C° 0 mm 1 mps 553 mmHg 95%
Show more